Location: Bullenkuhlen
(53.7689°N, 9.7495°E)
Time: 00:14:21
(UTC+00:00)

ATLAS CENTAUR R/B - Pass Details

Date: 09 April 2020
Orbit: 471 x 675 km, 64.7° (Epoch: 30 May)

Event Time Altitude Azimuth Distance (km) Brightness Sun altitude
Rises 21:54:16 0° 307° (NW) 2,661 5.8 -25.5°
Reaches altitude 10° 21:56:56 10° 290° (WNW) 1,732 4.4 -25.6°
Enters shadow 21:58:34 17° 267° (W) 1,329 3.4 -25.7°
